Location: Devore Heights
(34.2372°N, 117.4156°W)
Time: 02:17:00
(UTC+00:00)

Vanguard 2 Rocket - Pass Details

Date: 18 September 2024
Orbit: 553 x 3298 km, 32.9° (Epoch: 14 October)

Event Time Altitude Azimuth Distance (km) Brightness Sun altitude
Exits shadow 12:22:39 16° 277° (W) 4,190 9.7 -15.7°
Maximum altitude 12:34:55 73° 197° (SSW) 2,950 9.3 -13.2°
Drops below altitude 10° 12:54:57 10° 117° (ESE) 6,243 12.0 -9.1°
Sets 12:59:46 0° 116° (ESE) 7,211 12.5 -8.2°
